This is the latest recevied weather packets stored in our database for station/object NO4D. If no packets are shown the sender has not sent any weather packets the latest 10 day(s).
| Time | Temp. | Humidity | Pressure | Rain* | Wind** | Luminosity | Snow |
|---|---|---|---|---|---|---|---|
| 1778084446 | 21.11° C | 79% | 1015.2 hPa | 0 mm | - | 227 W/m² | - |
| 1778084143 | 21.67° C | 77% | 1014.8 hPa | 0 mm | - | 153 W/m² | - |
| 1778083839 | 21.67° C | 75% | 1015.5 hPa | 0 mm | - | 136 W/m² | - |
| 1778083537 | 21.67° C | 74% | 1015.7 hPa | 0 mm | - | 115 W/m² | - |
| 1778083234 | 21.67° C | 74% | 1015.4 hPa | 0 mm | - | 162 W/m² | - |
| 1778082933 | 21.67° C | 74% | 1015.1 hPa | 0 mm | - | 225 W/m² | - |
| 1778081823 | 21.67° C | 73% | 1015.1 hPa | 0 mm | - | 294 W/m² | - |
| 1778081521 | 21.67° C | 73% | 1015.1 hPa | 0 mm | - | 145 W/m² | - |
| 1778081218 | 21.67° C | 73% | 1015 hPa | 0 mm | - | 137 W/m² | - |
| 1778080915 | 22.22° C | 73% | 1015.2 hPa | 0 mm | - | 197 W/m² | - |
| 1778080614 | 21.67° C | 73% | 1015 hPa | 0 mm | - | 242 W/m² | - |
| 1778080310 | 21.67° C | 73% | 1014.9 hPa | 0 mm | - | 340 W/m² | - |
| 1778080007 | 22.22° C | 73% | 1015 hPa | 0 mm | - | 324 W/m² | - |
| 1778079704 | 21.67° C | 74% | 1015 hPa | 0 mm | - | 280 W/m² | - |
| 1778079401 | 21.67° C | 75% | 1015.1 hPa | 0 mm | - | 262 W/m² | - |
| 1778079097 | 21.67° C | 75% | 1014.9 hPa | 0 mm | - | 238 W/m² | - |
| 1778078796 | 21.11° C | 76% | 1015 hPa | 0 mm | - | 185 W/m² | - |
| 1778078492 | 21.11° C | 76% | 1014.7 hPa | 0 mm | - | 223 W/m² | - |
| 1778078190 | 20.56° C | 76% | 1014.7 hPa | 0 mm | - | 261 W/m² | - |
| 1778077887 | 21.11° C | 76% | 1014.8 hPa | 0 mm | - | 283 W/m² | - |
| 1778077586 | 20.56° C | 77% | 1014.6 hPa | 0 mm | - | 267 W/m² | - |
| 1778077283 | 20.56° C | 77% | 1014.5 hPa | 0 mm | - | 252 W/m² | - |
| 1778076981 | 20.56° C | 77% | 1014.3 hPa | 0 mm | - | 224 W/m² | - |
| 1778076679 | 20.56° C | 78% | 1014.5 hPa | 0 mm | - | 222 W/m² | - |
| 1778076376 | 20° C | 77% | 1014.5 hPa | 0 mm | - | 219 W/m² | - |
* Rain latest hour (hover to see other rain measurements)
** Current wind speed in m/s (hover to see current wind gust speed)